Bozeman, MT

9:33 AM MDT on September 21, 2017 (GMT -0600)
Gallatin

Weather History for KBZN - July, 2013

Change the Weather History Date:

Wednesday, July 3, 2013

  Actual Average Record
Temperature  
Mean Temperature 76 °F 67 °F  
Max Temperature 93 °F 84 °F 100 °F (1961)
Min Temperature 58 °F 49 °F 36 °F (1972)
Degree Days  
Heating Degree Days 0 2  
Month to date heating degree days 0 6  
Since 1 June heating degree days 167 147  
Since 1 July heating degree days 0 6  
Cooling Degree Days 11 4  
Month to date cooling degree days 30 10  
Year to date cooling degree days 59 52  
Since 1 June cooling degree days 57 48  
Growing Degree Days 26 (Base 50)    
Moisture  
Dew Point 52 °F    
Average Humidity 48    
Maximum Humidity 75    
Minimum Humidity 20    
Precipitation  
Precipitation 0.00 in 0.05 in 1.36 in (1993)
Month to date precipitation 0.00 0.14  
Year to date precipitation 7.00 8.44  
Snow  
Snow 0.00 in 0.00 in T in (1955)
Month to date snowfall 0.0 0.0  
Since 1 June snowfall 0.0 0.0  
Since 1 July snowfall 0.0 0.0  
Snow Depth 0.00 in    
Sea Level Pressure  
Sea Level Pressure 29.90 in    
Wind  
Wind Speed 5 mph (SE)    
Max Wind Speed 12 mph    
Max Gust Speed 17 mph    
Visibility 10 miles    
Events      
T = Trace of Precipitation, MM = Missing Value Source: NWS Daily Summary

Daily Weather History Graph

Daily Weather History Graph

Search for Another Location

Airport or City:

Trip Planner

Search our weather history database for the weather conditions in past years. The results will help you decide how hot, cold, wet, or windy it might be!

Date:

Astronomy

Jul. 03, 2013 Rise Set
Actual Time 5:40 AM MDT 9:17 PM MDT
Civil Twilight 5:02 AM MDT 9:55 PM MDT
Nautical Twilight 4:11 AM MDT 10:45 PM MDT
Astronomical Twilight 3:03 AM MDT 11:53 PM MDT
Moon 2:26 AM MDT (7/3) 5:26 PM MDT (7/3)
Length of Visible Light 16h 53m
Length of Day
15h 37m
Waning Crescent, 18% of the Moon is Illuminated
Jul 3
Waning Crescent
Jul 8
New
Jul 15
First Quarter
Jul 22
Full
Jul 29
Last Quarter

Hourly Weather History & Observations

Time (MDT) Temp. Heat Index Dew Point Humidity Pressure Visibility Wind Dir Wind Speed Gust Speed Precip Events Conditions
12:56 AM 69.1 °F - 52.0 °F 54% 29.92 in 10.0 mi Calm Calm - N/A   Clear
1:56 AM 62.1 °F - 54.0 °F 75% 29.92 in 10.0 mi ESE 6.9 mph - N/A   Clear
2:56 AM 64.0 °F - 52.0 °F 65% 29.91 in 10.0 mi SE 3.5 mph - N/A   Clear
3:56 AM 59.0 °F - 52.0 °F 78% 29.92 in 10.0 mi SE 5.8 mph - N/A   Clear
4:56 AM 60.1 °F - 52.0 °F 75% 29.92 in 10.0 mi SSE 9.2 mph - N/A   Clear
5:56 AM 59.0 °F - 51.1 °F 75% 29.95 in 10.0 mi Calm Calm - N/A   Clear
6:56 AM 64.0 °F - 54.0 °F 70% 29.96 in 10.0 mi South 5.8 mph - N/A   Clear
7:56 AM 69.1 °F - 55.9 °F 63% 29.98 in 10.0 mi ESE 5.8 mph - N/A   Clear
8:56 AM 75.9 °F - 53.1 °F 45% 29.97 in 10.0 mi SSE 4.6 mph - N/A   Clear
9:56 AM 81.0 °F 81.0 °F 57.0 °F 44% 29.97 in 10.0 mi ENE 4.6 mph - N/A   Clear
10:56 AM 84.0 °F - 52.0 °F 33% 29.97 in 10.0 mi Variable 3.5 mph - N/A   Clear
11:56 AM 86.0 °F - 48.9 °F 28% 29.94 in 10.0 mi WSW 6.9 mph - N/A   Clear
12:56 PM 88.0 °F - 48.9 °F 26% 29.92 in 10.0 mi NW 10.4 mph - N/A   Clear
1:56 PM 89.1 °F - 46.0 °F 22% 29.91 in 10.0 mi Calm Calm - N/A   Clear
2:56 PM 91.0 °F - 46.0 °F 21% 29.89 in 10.0 mi Variable 3.5 mph - N/A   Clear
3:56 PM 91.0 °F - 44.1 °F 20% 29.88 in 10.0 mi Calm Calm - N/A   Clear
4:56 PM 93.0 °F - 46.9 °F 20% 29.85 in 10.0 mi Calm Calm - N/A   Clear
5:56 PM 89.1 °F - 48.9 °F 25% 29.83 in 10.0 mi South 8.1 mph - N/A   Clear
6:56 PM 89.1 °F - 51.1 °F 27% 29.82 in 10.0 mi East 3.5 mph - N/A   Partly Cloudy
7:56 PM 82.9 °F 82.6 °F 57.9 °F 42% 29.82 in 10.0 mi ESE 4.6 mph - N/A   Partly Cloudy
8:56 PM 81.0 °F - 52.0 °F 36% 29.82 in 9.0 mi NNE 8.1 mph - N/A   Mostly Cloudy
9:56 PM 72.0 °F - 55.0 °F 55% 29.84 in 10.0 mi NE 4.6 mph - N/A   Scattered Clouds
10:56 PM 71.1 °F - 57.9 °F 63% 29.84 in 10.0 mi SSE 6.9 mph - N/A   Scattered Clouds
11:56 PM 69.1 °F - 55.0 °F 61% 29.85 in 10.0 mi SSE 9.2 mph - N/A   Clear